[[{"header":{"parameterUnit":"m.s-1","parameterCategory":1,"la1":30.2991,"la2":30.254,"lo1":-89.0895,"lo2":-89.0444,"dy":0.0017,"dx":0.0017,"nx":28,"ny":28,"refTime":"2025-06-14T03:00:00:Z","depth":0,"parameterNumber":2,"parameterNumberName":"U-component_of_WINDS"},"data":[0,0,0,0,0,0,0,0,0,0,0,0,0,0,0,0,0,0,0,0,0,0,0,0,0,0,0,0,0,0,0,0,0,0,0,0,0,0,0,0,0,0,0,0,0,0,0,0,0,0,0,0,0,0,0,0,0,0,0.9508,0.9509,0,0.9553,0.9554,0.9554,0.9556,0.9555,0.9555,0.9554,0.9599,0.9601,0.9602,0,0,0,0,0,0,0,0,0,0,0,0,0,0.9421,0.9423,0.9508,0.9509,0.9509,0.9553,0.9554,0.9554,0.9556,0.9555,0.9555,0.9554,0.9599,0.9601,0.9603,0,0,0,0,0,0,0,0,0,0,0,0,0,0.9462,0.9423,0.9508,0.9515,0.9517,0.9553,0.9554,0.9555,0.9556,0.9555,0.9554,0.9554,0.9598,0.96,0.9603,0.9635,0,0,0.9611,0.9612,0,0,0,0,0,0,0,0,0.946,0.9465,0.9514,0.9515,0.9516,0.9548,0.954,0.9581,0.9556,0.9541,0.9554,0.9553,0.9583,0.9586,0.9597,0.9637,0.9639,0.9611,0.9612,0.9614,0.9614,0,0,0,0,0,0,0,0.9457,0.9463,0.9526,0.9514,0.9516,0.9516,0.9521,0.9547,0.9566,0.9542,0.9543,0.9548,0.9583,0.9594,0.9598,0.9639,0.9611,0.9613,0.9615,0.9616,0.9706,0.9707,0,0,0,0,0,0,0.9453,0.9461,0.9524,0.9527,0.9485,0.9518,0.9523,0.9539,0.9566,0.9569,0.9549,0.9548,0.959,0.9595,0.9599,0.9637,0.9614,0.9616,0.9617,0.9705,0.9706,0.9707,0,0,0,0,0,0,0.9451,0.9458,0.9523,0.9494,0.9502,0.952,0.9537,0.954,0.9551,0.957,0.9573,0.9556,0.959,0.9596,0.9626,0.9639,0.9617,0.9619,0.9704,0.9705,0.9707,0.9713,0,0,0,0,0,0,0.9448,0.9458,0.9471,0.9494,0.9504,0.9549,0.9538,0.9541,0.9555,0.9555,0.9579,0.9582,0.959,0.9622,0.9628,0.9642,0.9621,0.9703,0.9705,0.9706,0.9712,0.9715,0.9717,0,0,0,0,0,0.9445,0.9471,0.9471,0.9479,0.952,0.955,0.9555,0.9564,0.9557,0.9569,0.9581,0.9581,0.9636,0.9625,0.9632,0.9646,0.9702,0.9704,0.9706,0.9711,0.9714,0.9717,0,0,0,0,0,0,0.9448,0.9474,0.9475,0.9509,0.9527,0.955,0.9566,0.9567,0.9588,0.9586,0.9596,0.9601,0.9631,0.9642,0.9628,0.9678,0.9668,0.9672,0.9669,0.9673,0.9675,0.9671,0.9623,0,0,0,0,0,0.9453,0.9475,0.9496,0.9524,0.9533,0.9548,0.9561,0.9567,0.9585,0.9593,0.9607,0.9625,0.9647,0.966,0.9681,0.9714,0.9718,0.9727,0.973,0.9732,0.9734,0.9751,0.9754,0.9714,0.9714,0.9714,0,0,0.9462,0.9479,0.9493,0.9525,0.954,0.9561,0.9555,0.9578,0.9594,0.9596,0.9625,0.9636,0.9657,0.9688,0.9702,0.9698,0.9747,0.9734,0.9736,0.9737,0.9753,0.9757,0.976,0.9715,0.9715,0.9714,0,0,0.9491,0.9506,0.9531,0.9545,0.9568,0.9577,0.9583,0.9605,0.9613,0.9642,0.9643,0.9662,0.9699,0.9713,0.9725,0.9758,0.9758,0.9764,0.9777,0.9793,0.9796,0.9799,0.9809,0.9813,0.9767,0.9767,0.9767,0,0.95,0.9533,0.9543,0.9566,0.958,0.9583,0.9607,0.9621,0.9648,0.9657,0.9652,0.9697,0.9712,0.9745,0.9753,0.9763,0.9769,0.9761,0.9795,0.9798,0.9801,0.9811,0.9815,0.9768,0.9768,0.9768,0.9767,0,0.9542,0.9565,0.9582,0.9609,0.9624,0.9648,0.966,0.9675,0.9678,0.9688,0.9717,0.9734,0.9757,0.9766,0.977,0.98,0.9796,0.9793,0.9783,0.9805,0.9814,0.9818,0.9768,0.9768,0.9768,0.9768,0,0,0.9574,0.9605,0.9611,0.9622,0.9646,0.9664,0.9687,0.971,0.9722,0.9741,0.9759,0.979,0.9787,0.98,0.9806,0.982,0.9843,0.9815,0.9816,0.9818,0.9875,0.9876,0.988,0.9843,0.9844,0.9845,0.9873,0,0.9604,0.9645,0.9654,0.969,0.971,0.9713,0.9733,0.975,0.9759,0.9777,0.9788,0.9809,0.9804,0.9812,0.9826,0.9837,0.9854,0.9835,0.986,0.986,0.9853,0.9886,0.9887,0.9913,0.9876,0.9877,0.9878,0,0.9645,0.9664,0.9702,0.9722,0.9731,0.9749,0.977,0.9788,0.9806,0.9812,0.9826,0.983,0.9853,0.9843,0.9874,0.9861,0.9871,0.9878,0.9879,0.9881,0.987,0.9887,0.9922,0.9925,0.9884,0.9883,0.9883,0,0.9662,0.9698,0.9724,0.9734,0.9759,0.9771,0.9782,0.9799,0.9812,0.9831,0.9839,0.986,0.9871,0.9886,0.9895,0.9887,0.9925,0.9916,0.9929,0.9929,0.9937,0.9936,0.9972,0.9945,0.9945,0.9945,0.9945,0,0.9694,0.9716,0.9732,0.9749,0.9773,0.9783,0.9807,0.9818,0.9833,0.9851,0.9855,0.9871,0.9882,0.99,0.9907,0.993,0.9936,0.994,0.9942,0.9939,0.9939,0.9946,0.9944,0.9946,0.9946,0.9946,0.9946,0,0.9717,0.9729,0.9758,0.9779,0.9784,0.9802,0.9819,0.9834,0.9844,0.9866,0.9872,0.9886,0.9907,0.9917,0.9944,0.9948,0.9975,0.9975,0.9968,0.9969,0.9981,0.9979,1.0022,1.0028,0.9998,0.9998,0.9999,0,0.9736,0.9753,0.9776,0.9788,0.9799,0.9819,0.9832,0.9842,0.9855,0.9876,0.9889,0.991,0.9927,0.996,0.9972,0.9992,0.9993,1.0006,0.9996,0.9992,0.9991,0.999,0.9991,1.0008,1.0008,1.0008,1.0009,0,0.9768,0.9773,0.9792,0.9813,0.9828,0.9845,0.9861,0.9871,0.9883,0.9897,0.9919,0.9932,0.9958,0.9979,0.9999,1.0009,1.0011,1.0012,1.0016,1.0013,1.0008,1.001,0.9972,1.0011,1.0011,1.001,1.001,1.001,0.9789,0.9804,0.9822,0.9842,0.9856,0.9871,0.9886,0.9897,0.9915,0.9937,0.9942,0.9964,0.998,1.0008,1.0019,1.0036,1.0033,1.0039,1.004,1.0041,1.0041,1.0006,1.0039,1.0039,1.0039,1.0039,1.0039,0,0.982,0.9832,0.9851,0.9873,0.9889,0.9889,0.9907,0.992,0.994,0.9955,0.9972,0.9996,1.0015,1.0029,1.0049,1.0059,1.006,1.0064,1.0063,1.0065,1.0043,1.0037,1.0063,1.0063,1.0063,1.0063,1.0063,1.0063,0.9838,0.9863,0.987,0.9901,0.9912,0.9934,0.9944,0.9957,0.9969,0.9996,1.0012,1.0021,1.0035,1.0056,1.0073,1.0077,1.0083,1.0087,1.009,1.0069,1.0067,1.0064,1.0059,1.0089,1.0089,1.011,1.0111,1.0111]},{"header":{"parameterUnit":"m.s-1","parameterCategory":1,"la1":30.2991,"la2":30.254,"lo1":-89.0895,"lo2":-89.0444,"dy":0.0017,"dx":0.0017,"nx":28,"ny":28,"refTime":"2025-06-14T03:00:00:Z","depth":0,"parameterNumber":3,"parameterNumberName":"V-component_of_WINDS"},"data":[0,0,0,0,0,0,0,0,0,0,0,0,0,0,0,0,0,0,0,0,0,0,0,0,0,0,0,0,0,0,0,0,0,0,0,0,0,0,0,0,0,0,0,0,0,0,0,0,0,0,0,0,0,0,0,0,0,0,3.3583,3.3584,0,3.3694,3.3696,3.3697,3.3691,3.369,3.3688,3.3687,3.3798,3.3802,3.3806,0,0,0,0,0,0,0,0,0,0,0,0,0,3.3361,3.3365,3.3583,3.3584,3.3586,3.3694,3.3696,3.3697,3.3692,3.369,3.3688,3.3686,3.3796,3.3801,3.3807,0,0,0,0,0,0,0,0,0,0,0,0,0,3.3463,3.3366,3.3583,3.3596,3.3598,3.3694,3.3696,3.3698,3.3692,3.369,3.3687,3.3685,3.3794,3.3801,3.3807,3.3896,0,0,3.3828,3.3831,0,0,0,0,0,0,0,0,3.3457,3.3471,3.3593,3.3595,3.3598,3.3677,3.3658,3.3764,3.3693,3.3656,3.3687,3.3684,3.3759,3.3768,3.3794,3.3901,3.3906,3.3828,3.3832,3.3835,3.3837,0,0,0,0,0,0,0,3.345,3.3466,3.3627,3.3594,3.3598,3.3595,3.3607,3.3678,3.3719,3.3659,3.3659,3.3673,3.376,3.3788,3.3797,3.3908,3.3828,3.3834,3.3838,3.3841,3.409,3.4092,0,0,0,0,0,0,3.3441,3.3461,3.3623,3.363,3.352,3.3601,3.3614,3.3654,3.3719,3.3726,3.3674,3.3672,3.3778,3.3789,3.3801,3.3907,3.3835,3.3841,3.3845,3.4087,3.409,3.4093,0,0,0,0,0,0,3.3436,3.3455,3.3619,3.3545,3.3566,3.3607,3.3652,3.3657,3.3685,3.373,3.3737,3.3696,3.3776,3.3791,3.3872,3.3911,3.3844,3.385,3.4084,3.4088,3.4092,3.4121,0,0,0,0,0,0,3.343,3.3454,3.3489,3.3546,3.357,3.369,3.3654,3.3661,3.3697,3.3695,3.3752,3.3759,3.3776,3.3862,3.3879,3.3919,3.3856,3.4081,3.4086,3.4091,3.4117,3.4126,3.4133,0,0,0,0,0,3.3422,3.3493,3.3491,3.3511,3.3615,3.3692,3.3705,3.3724,3.37,3.3735,3.3764,3.3758,3.3904,3.387,3.3889,3.3932,3.4078,3.4085,3.409,3.4113,3.4124,3.4133,0,0,0,0,0,0,3.3438,3.3501,3.3499,3.3591,3.3636,3.3691,3.3736,3.3735,3.3787,3.3782,3.3802,3.3815,3.3895,3.3922,3.3883,3.402,3.3988,3.3998,3.3999,3.401,3.4018,3.4009,3.3861,0,0,0,0,0,3.3453,3.3511,3.3562,3.3638,3.3661,3.3694,3.3729,3.3739,3.3786,3.3805,3.3839,3.3884,3.394,3.3977,3.4031,3.4121,3.4132,3.4159,3.4167,3.4174,3.4182,3.4229,3.4241,3.4113,3.4113,3.4113,0,0,3.3483,3.3524,3.356,3.3642,3.3679,3.3737,3.3711,3.3774,3.3817,3.3814,3.3892,3.3919,3.397,3.4055,3.4094,3.408,3.422,3.4181,3.4186,3.4191,3.4236,3.4248,3.4259,3.4117,3.4116,3.4115,0,0,3.3567,3.3606,3.3672,3.3709,3.3764,3.3786,3.3801,3.3856,3.3874,3.3953,3.3951,3.4002,3.4099,3.4134,3.4165,3.4262,3.4257,3.4279,3.4321,3.4366,3.4376,3.4385,3.4417,3.4429,3.4287,3.4287,3.4287,0,3.3598,3.3687,3.3706,3.377,3.3805,3.3806,3.3872,3.3906,3.3976,3.3999,3.3982,3.4102,3.4137,3.423,3.4253,3.4279,3.4296,3.4272,3.4374,3.4383,3.4391,3.4422,3.4435,3.4289,3.4289,3.4288,3.4288,0,3.372,3.3782,3.3828,3.3896,3.3937,3.4001,3.4029,3.4067,3.4073,3.4096,3.4175,3.4216,3.4278,3.4301,3.4308,3.4394,3.4383,3.437,3.4338,3.4405,3.4435,3.4447,3.4292,3.4291,3.4291,3.429,0,0,3.3818,3.3895,3.3912,3.3941,3.4002,3.4049,3.4112,3.4173,3.4205,3.4253,3.4305,3.4386,3.4374,3.4409,3.4419,3.446,3.453,3.4441,3.4443,3.4455,3.4625,3.4633,3.4647,3.4528,3.4531,3.4532,3.462,0,3.3907,3.4021,3.4039,3.4139,3.4194,3.4195,3.425,3.4292,3.4315,3.4364,3.4388,3.4445,3.4425,3.4446,3.4486,3.4513,3.4564,3.4508,3.4575,3.4577,3.456,3.4662,3.4672,3.4752,3.4632,3.4634,3.4635,0,3.4027,3.4078,3.4182,3.4233,3.4257,3.4307,3.4362,3.441,3.4457,3.447,3.4509,3.4514,3.4578,3.4545,3.4632,3.4592,3.4621,3.4638,3.4642,3.4647,3.4609,3.4669,3.4779,3.479,3.4654,3.4652,3.4651,0,3.4085,3.418,3.4254,3.428,3.4342,3.4376,3.4403,3.4447,3.4482,3.4531,3.4553,3.4608,3.4638,3.468,3.4699,3.4674,3.4784,3.4753,3.4795,3.4795,3.4817,3.4815,3.4932,3.4839,3.4839,3.4839,3.4838,0,3.4182,3.4245,3.4281,3.4326,3.4397,3.4417,3.4485,3.4511,3.455,3.4599,3.4604,3.465,3.4673,3.4722,3.4738,3.4806,3.482,3.4831,3.4834,3.483,3.4828,3.4847,3.4842,3.4842,3.4841,3.484,3.484,0,3.4258,3.4285,3.4366,3.4418,3.4432,3.4481,3.4525,3.4568,3.459,3.4652,3.4667,3.4702,3.4759,3.4783,3.4854,3.4864,3.4941,3.4941,3.4926,3.4926,3.4966,3.4962,3.5098,3.5116,3.5013,3.5014,3.5015,0,3.4317,3.4366,3.4423,3.4456,3.4485,3.4539,3.4574,3.4595,3.4631,3.4687,3.4723,3.4781,3.4828,3.4919,3.4949,3.5003,3.5002,3.5046,3.501,3.5004,3.5,3.4997,3.5,3.5052,3.5053,3.5054,3.5055,0,3.4419,3.4429,3.448,3.4536,3.4578,3.4623,3.4666,3.4693,3.472,3.476,3.4819,3.4856,3.4927,3.4984,3.5039,3.5065,3.5064,3.5066,3.5079,3.5074,3.5062,3.5067,3.4942,3.5063,3.5062,3.5061,3.5061,3.5061,3.4487,3.4529,3.4576,3.4632,3.4667,3.4707,3.4749,3.4776,3.4826,3.4887,3.4896,3.4958,3.5001,3.5075,3.5103,3.5151,3.514,3.5158,3.5163,3.5166,3.5168,3.5056,3.5162,3.5161,3.5161,3.5161,3.5161,0,3.4587,3.4616,3.4668,3.4728,3.4772,3.4768,3.4816,3.4852,3.4907,3.4948,3.4994,3.5061,3.5115,3.5149,3.5203,3.5235,3.5236,3.5248,3.5245,3.5251,3.5176,3.5159,3.5247,3.5247,3.5247,3.5247,3.5247,3.5247,3.4643,3.4714,3.473,3.4817,3.4846,3.4908,3.4935,3.4971,3.5003,3.5078,3.5123,3.5145,3.5183,3.524,3.5289,3.5297,3.5316,3.5329,3.5336,3.5265,3.5256,3.5248,3.5232,3.5333,3.5334,3.5407,3.5408,3.5408]}]]